EW9532 Weather Reports


Display with metric or nautical units.
time (UTC)temp
F
wind
direction
speed
MPH
gust
MPH
rain 1hr
in
rain 24hr
in
rain mn
in
humidity
%
barometer
mb
20260507032630 85 59 0.0 4.0 0.00 0.00 0.00 80 1010.7
20260507032130 85 101 1.0 5.0 0.00 0.00 0.00 80 1010.8
20260507031630 85 321 1.0 6.0 0.00 0.00 0.00 79 1010.7
20260507031553 85 0 0.0 5.0 0.00 0.00 0.00 79 1010.9
20260507031129 85 78 1.0 6.0 0.00 0.00 0.00 79 1010.6
20260507030630 85 130 2.0 8.0 0.00 0.00 0.00 79 1010.5
20260507030131 86 276 1.0 8.0 0.00 0.00 0.00 78 1010.4
20260507030050 85 0 1.0 8.0 0.00 0.00 0.00 78 1010.7
20260507025900 86 35 1.0 6.0 0.00 0.00 0.00 78 1010.2
20260507025130 86 126 2.0 5.0 0.00 0.00 0.00 77 1010.2
20260507024630 86 154 1.0 8.0 0.00 0.00 0.00 77 1010.0
20260507024550 86 0 0.0 8.0 0.00 0.00 0.00 76 1010.2
20260507024130 86 276 1.0 10.0 0.00 0.00 0.00 76 1009.9
20260507023632 87 159 0.0 10.0 0.00 0.00 0.00 76 1009.8
20260507023131 87 95 0.0 9.0 0.00 0.00 0.00 75 1009.7
20260507023048 87 224 2.0 9.0 0.00 0.00 0.00 75 1009.9
20260507022630 87 52 1.0 9.0 0.00 0.00 0.00 75 1009.4
20260507022130 87 79 1.0 9.0 0.00 0.00 0.00 74 1009.2
20260507021630 88 346 2.0 7.0 0.00 0.00 0.00 73 1009.2
20260507021557 87 226 0.0 6.0 0.00 0.00 0.00 73 1009.5
20260507021354 88 308 1.0 6.0 0.00 0.00 0.00 73 1009.1
20260507020852 88 165 1.0 8.0 0.00 0.00 0.00 72 1008.9
20260507020131 88 157 2.0 8.0 0.00 0.00 0.00 72 1008.9
20260507020048 88 231 0.0 7.0 0.00 0.00 0.00 71 1009.2
20260507015630 89 302 0.0 6.0 0.00 0.00 0.00 71 1008.8
20260507015130 89 275 1.0 6.0 0.00 0.00 0.00 70 1008.7
20260507014629 90 238 0.0 8.0 0.00 0.00 0.00 69 1008.6
20260507014547 89 120 1.0 8.0 0.00 0.00 0.00 69 1008.8
20260507014130 90 27 1.0 8.0 0.00 0.00 0.00 69 1008.4
20260507013630 90 281 1.0 9.0 0.00 0.00 0.00 69 1008.3
20260507013132 90 181 3.0 9.0 0.00 0.00 0.00 69 1008.2
20260507013050 90 338 4.0 10.0 0.00 0.00 0.00 69 1008.4
20260507012631 90 160 2.0 8.0 0.00 0.00 0.00 71 1008.0
20260507012131 90 51 0.0 1.0 0.00 0.00 0.00 72 1008.0
20260507011631 90 174 0.0 4.0 0.00 0.00 0.00 71 1007.8
20260507011550 90 0 0.0 5.0 0.00 0.00 0.00 71 1008.0
20260507011132 91 174 0.0 5.0 0.00 0.00 0.00 71 1007.6
20260507010630 91 32 1.0 6.0 0.00 0.00 0.00 71 1007.6
20260507010130 91 203 0.0 6.0 0.00 0.00 0.00 71 1007.5
20260507010050 91 0 0.0 5.0 0.00 0.00 0.00 70 1007.6
20260507005900 91 52 1.0 4.0 0.00 0.00 0.00 70 1007.4
20260507005354 92 232 0.0 7.0 0.00 0.00 0.00 70 1007.3
20260507004630 92 277 1.0 7.0 0.00 0.00 0.00 69 1007.3
20260507004550 92 117 1.0 7.0 0.00 0.00 0.00 69 1007.3
20260507004129 92 96 1.0 6.0 0.00 0.00 0.00 68 1007.0
20260507003629 93 52 2.0 6.0 0.00 0.00 0.00 67 1007.0
20260507003131 94 10 0.0 4.0 0.00 0.00 0.00 67 1007.0
20260507003049 93 0 0.0 10.0 0.00 0.00 0.00 66 1007.2
20260507002630 94 237 0.0 7.0 0.00 0.00 0.00 66 1006.9
20260507002130 95 319 1.0 7.0 0.00 0.00 0.00 65 1006.7
20260507001630 96 99 1.0 6.0 0.00 0.00 0.00 63 1006.7
20260507001551 96 195 0.0 4.0 0.00 0.00 0.00 62 1007.0
20260507001130 97 171 1.0 3.0 0.00 0.00 0.00 59 1006.5
20260507000852 98 273 0.0 1.0 0.00 0.00 0.00 56 1006.5
20260507000420 98 215 0.0 0.0 0.00 0.00 0.00 55 1006.4
20260507000054 97 0 0.0 1.0 0.00 0.00 0.00 54 1006.7
20260506235621 98 252 0.0 0.0 0.00 0.00 0.00 54 1006.3
20260506235121 98 172 0.0 1.0 0.00 0.00 0.00 54 1006.3
20260506234619 99 172 0.0 1.0 0.00 0.00 0.00 53 1006.3
20260506234607 98 0 0.0 1.0 0.00 0.00 0.00 52 1006.5
20260506234120 99 165 0.0 0.0 0.00 0.00 0.00 53 1006.2
20260506233618 99 165 0.0 0.0 0.00 0.00 0.00 53 1006.2
20260506233116 100 165 0.0 0.0 0.00 0.00 0.00 53 1006.2
20260506233047 99 0 0.0 0.0 0.00 0.00 0.00 52 1006.5
20260506232617 99 165 0.0 0.0 0.00 0.00 0.00 53 1006.3
20260506232339 100 230 0.0 0.0 0.00 0.00 0.00 52 1006.1
20260506231611 101 230 0.0 0.0 0.00 0.00 0.00 51 1006.0
20260506231550 100 0 0.0 0.0 0.00 0.00 0.00 50 1006.2
20260506231111 101 230 0.0 0.0 0.00 0.00 0.00 52 1006.0
20260506230602 101 230 0.0 0.0 0.00 0.00 0.00 52 1005.9
20260506230103 100 230 0.0 2.0 0.00 0.00 0.00 52 1005.9
20260506230057 100 0 0.0 1.0 0.00 0.00 0.00 52 1006.1
20260506225602 100 230 0.0 2.0 0.00 0.00 0.00 53 1005.8
20260506225102 100 283 0.0 1.0 0.00 0.00 0.00 52 1005.8
20260506224602 100 58 0.0 0.0 0.00 0.00 0.00 52 1005.9
20260506224550 100 0 0.0 1.0 0.00 0.00 0.00 52 1006.1
20260506224102 100 58 0.0 0.0 0.00 0.00 0.00 53 1006.0
20260506223601 100 245 0.0 0.0 0.00 0.00 0.00 52 1005.9
20260506223101 100 202 0.0 0.0 0.00 0.00 0.00 52 1005.9
20260506223058 100 0 0.0 0.0 0.00 0.00 0.00 51 1006.1
20260506222604 100 202 0.0 0.0 0.00 0.00 0.00 53 1005.9
20260506222103 101 161 0.0 0.0 0.00 0.00 0.00 50 1006.0
20260506221604 101 169 0.0 0.0 0.00 0.00 0.00 53 1006.1
20260506221551 101 0 0.0 0.0 0.00 0.00 0.00 52 1006.2
20260506221323 101 169 0.0 0.0 0.00 0.00 0.00 51 1006.1
20260506220828 101 169 0.0 1.0 0.00 0.00 0.00 52 1006.2
20260506220049 101 0 0.0 1.0 0.00 0.00 0.00 51 1006.5
20260506215601 101 79 0.0 1.0 0.00 0.00 0.00 52 1006.2
20260506215102 101 253 0.0 1.0 0.00 0.00 0.00 52 1006.2
20260506214602 101 253 0.0 1.0 0.00 0.00 0.00 52 1006.3
20260506214549 101 0 0.0 1.0 0.00 0.00 0.00 51 1006.5
20260506214101 101 244 0.0 1.0 0.00 0.00 0.00 52 1006.3
20260506214051 102 212 0.0 0.0 0.00 0.00 0.00 53 1006.3
20260506213102 101 170 0.0 1.0 0.00 0.00 0.00 52 1006.2
20260506213053 101 0 0.0 0.0 0.00 0.00 0.00 52 1006.5
20260506212604 101 170 0.0 1.0 0.00 0.00 0.00 53 1006.3
20260506212103 101 334 0.0 1.0 0.00 0.00 0.00 52 1006.4
20260506211825 101 155 0.0 1.0 0.00 0.00 0.00 51 1006.3
20260506211549 101 0 0.0 1.0 0.00 0.00 0.00 50 1006.6
20260506211116 102 142 0.0 1.0 0.00 0.00 0.00 51 1006.4
20260506210604 102 311 0.0 0.0 0.00 0.00 0.00 51 1006.4
20260506210110 101 122 0.0 1.0 0.00 0.00 0.00 52 1006.4
20260506210051 101 0 0.0 0.0 0.00 0.00 0.00 52 1006.7
20260506205604 101 122 0.0 1.0 0.00 0.00 0.00 52 1006.7
20260506205104 101 194 0.0 0.0 0.00 0.00 0.00 53 1006.7
20260506204602 100 194 0.0 0.0 0.00 0.00 0.00 52 1006.8
20260506204556 100 0 0.0 3.0 0.00 0.00 0.00 52 1007.0
20260506204321 100 105 0.0 3.0 0.00 0.00 0.00 52 1006.7
20260506203602 101 211 0.0 3.0 0.00 0.00 0.00 52 1006.9
20260506203327 101 321 0.0 0.0 0.00 0.00 0.00 55 1006.9
20260506203047 101 0 0.0 0.0 0.00 0.00 0.00 55 1007.1
20260506202604 100 321 0.0 0.0 0.00 0.00 0.00 52 1006.9
20260506202104 100 321 0.0 0.0 0.00 0.00 0.00 53 1007.0
20260506201604 100 290 0.0 0.0 0.00 0.00 0.00 52 1007.0
20260506201543 100 0 0.0 0.0 0.00 0.00 0.00 52 1007.3
20260506201334 100 152 0.0 0.0 0.00 0.00 0.00 53 1007.1
20260506200603 100 152 0.0 1.0 0.00 0.00 0.00 53 1007.1
20260506200107 99 0 0.0 1.0 0.00 0.00 0.00 55 1007.5
20260506200104 99 152 0.0 1.0 0.00 0.00 0.00 55 1007.1
20260506195603 99 139 0.0 1.0 0.00 0.00 0.00 55 1007.2
20260506195121 99 252 0.0 0.0 0.00 0.00 0.00 57 1007.3
20260506194603 99 174 0.0 1.0 0.00 0.00 0.00 54 1007.4
20260506194558 99 0 0.0 1.0 0.00 0.00 0.00 53 1007.6
20260506194103 100 174 0.0 1.0 0.00 0.00 0.00 54 1007.5
20260506193603 100 229 0.0 1.0 0.00 0.00 0.00 56 1007.5
20260506193103 100 229 0.0 1.0 0.00 0.00 0.00 54 1007.7
20260506193052 99 0 0.0 1.0 0.00 0.00 0.00 53 1008.1
20260506192824 99 187 0.0 0.0 0.00 0.00 0.00 56 1007.9
20260506192117 98 187 0.0 0.0 0.00 0.00 0.00 56 1007.8
20260506191604 98 167 0.0 0.0 0.00 0.00 0.00 57 1007.8
20260506191547 97 0 0.0 0.0 0.00 0.00 0.00 58 1008.1
20260506191117 97 167 0.0 0.0 0.00 0.00 0.00 59 1007.8
20260506190603 96 167 0.0 0.0 0.00 0.00 0.00 59 1008.0
20260506190107 96 167 0.0 0.0 0.00 0.00 0.00 60 1008.1
20260506190053 96 0 0.0 1.0 0.00 0.00 0.00 59 1008.4
20260506185602 96 167 0.0 1.0 0.00 0.00 0.00 62 1008.2
20260506185102 95 167 0.0 6.0 0.00 0.00 0.00 61 1008.2
20260506184602 94 127 0.0 6.0 0.00 0.00 0.00 64 1008.2
20260506184545 94 0 0.0 5.0 0.00 0.00 0.00 64 1008.5
20260506184102 95 311 0.0 5.0 0.00 0.00 0.00 61 1008.3
20260506183602 94 255 0.0 3.0 0.00 0.00 0.00 62 1008.3
20260506183102 94 0 0.0 3.0 0.00 0.00 0.00 62 1008.7
20260506182602 95 31 0.0 2.0 0.00 0.00 0.00 63 1008.4
20260506182104 94 212 0.0 6.0 0.00 0.00 0.00 62 1008.6
20260506181604 94 15 1.0 6.0 0.00 0.00 0.00 62 1008.7
20260506181557 94 0 0.0 6.0 0.00 0.00 0.00 62 1008.9
20260506181104 94 60 0.0 5.0 0.00 0.00 0.00 63 1008.6
20260506180603 93 39 1.0 5.0 0.00 0.00 0.00 64 1008.5
20260506180116 93 329 0.0 6.0 0.00 0.00 0.00 65 1008.7
20260506180051 92 0 0.0 6.0 0.00 0.00 0.00 64 1009.0
20260506175603 93 191 0.0 6.0 0.00 0.00 0.00 65 1008.6
20260506175105 92 233 0.0 4.0 0.00 0.00 0.00 66 1008.7
20260506174603 92 319 1.0 8.0 0.00 0.00 0.00 65 1008.8
20260506174547 91 0 0.0 7.0 0.00 0.00 0.00 65 1009.1
20260506174103 92 61 1.0 8.0 0.00 0.00 0.00 66 1008.8
20260506173823 92 335 0.0 2.0 0.00 0.00 0.00 68 1008.8
20260506173544 91 258 0.0 2.0 0.00 0.00 0.00 69 1008.9
20260506173053 91 0 0.0 1.0 0.00 0.00 0.00 69 1009.2
20260506172601 90 295 0.0 4.0 0.00 0.00 0.00 70 1008.9
20260506172102 90 295 0.0 4.0 0.00 0.00 0.00 70 1008.9
20260506171602 90 353 0.0 5.0 0.00 0.00 0.00 70 1008.9
20260506171550 90 0 0.0 5.0 0.00 0.00 0.00 69 1009.2
20260506171102 90 108 1.0 5.0 0.00 0.00 0.00 71 1008.9
20260506170602 90 184 0.0 4.0 0.00 0.00 0.00 70 1009.1
20260506170050 89 355 0.0 8.0 0.00 0.00 0.00 72 1009.4
20260506165823 89 342 0.0 9.0 0.00 0.00 0.00 73 1009.0
20260506165102 89 134 1.0 9.0 0.00 0.00 0.00 73 1009.1
20260506164602 89 266 1.0 6.0 0.00 0.00 0.00 72 1009.1
20260506164555 88 138 0.0 7.0 0.00 0.00 0.00 71 1009.5
20260506164102 89 4 0.0 4.0 0.00 0.00 0.00 73 1009.1
20260506163602 88 270 0.0 5.0 0.00 0.00 0.00 73 1009.0
20260506163102 88 317 0.0 7.0 0.00 0.00 0.00 74 1009.1
20260506163054 88 0 0.0 9.0 0.00 0.00 0.00 73 1009.4
20260506162601 87 198 1.0 7.0 0.00 0.00 0.00 75 1008.9
20260506162102 87 200 1.0 7.0 0.00 0.00 0.00 74 1009.0
20260506161616 87 184 1.0 7.0 0.00 0.00 0.00 73 1009.0
20260506161603 87 184 0.0 7.0 0.00 0.00 0.00 73 1009.3
20260506161555 87 305 0.0 7.0 0.00 0.00 0.00 74 1008.9
20260506160603 87 9 1.0 7.0 0.00 0.00 0.00 74 1008.9
20260506160116 87 220 0.0 4.0 0.00 0.00 0.00 74 1008.8
20260506160055 87 0 0.0 4.0 0.00 0.00 0.00 73 1009.2
20260506155601 87 327 0.0 4.0 0.00 0.00 0.00 74 1009.0
20260506155103 87 301 0.0 6.0 0.00 0.00 0.00 76 1008.9
20260506154603 87 208 0.0 6.0 0.00 0.00 0.00 76 1009.0
20260506154554 86 0 0.0 5.0 0.00 0.00 0.00 74 1009.3
20260506154102 87 2 0.0 6.0 0.00 0.00 0.00 75 1008.9
20260506153602 87 337 0.0 3.0 0.00 0.00 0.00 76 1008.9
20260506153334 86 227 1.0 7.0 0.00 0.00 0.00 76 1008.8
20260506153051 86 0 0.0 6.0 0.00 0.00 0.00 75 1009.0
20260506152601 87 354 1.0 7.0 0.00 0.00 0.00 75 1008.8
20260506152102 86 311 0.0 2.0 0.00 0.00 0.00 76 1008.9
20260506151604 86 283 0.0 2.0 0.00 0.00 0.00 77 1008.8
20260506151100 85 169 0.0 2.0 0.00 0.00 0.00 78 1008.9
20260506150818 85 70 0.0 6.0 0.00 0.00 0.00 78 1008.9
20260506150049 85 321 0.0 6.0 0.00 0.00 0.00 79 1009.0
20260506145536 85 60 0.0 4.0 0.00 0.00 0.00 79 1009.0
20260506145032 84 337 0.0 4.0 0.00 0.00 0.00 79 1009.1
20260506144548 84 295 0.0 4.0 0.00 0.00 0.00 79 1009.4
20260506144532 84 186 0.0 4.0 0.00 0.00 0.00 80 1009.1
20260506144020 83 91 0.0 4.0 0.00 0.00 0.00 81 1009.0
20260506143510 83 284 0.0 2.0 0.00 0.00 0.00 81 1009.2
20260506143227 82 211 0.0 2.0 0.00 0.00 0.00 83 1009.3
20260506143054 82 0 0.0 2.0 0.00 0.00 0.00 82 1009.6
20260506142505 82 10 0.0 1.0 0.00 0.00 0.00 83 1009.3
20260506142004 81 43 0.0 4.0 0.00 0.00 0.00 84 1009.4
20260506141550 81 0 0.0 3.0 0.00 0.00 0.00 83 1009.7
20260506141504 81 242 0.0 4.0 0.00 0.00 0.00 84 1009.4
20260506141227 81 256 0.0 6.0 0.00 0.00 0.00 84 1009.4
20260506140503 81 130 0.0 6.0 0.00 0.00 0.00 84 1009.4
20260506140103 80 211 0.0 2.0 0.00 0.00 0.00 83 1009.6
20260506140003 81 262 0.0 2.0 0.00 0.00 0.00 84 1009.4
20260506135502 81 156 0.0 2.0 0.00 0.00 0.00 84 1009.4
20260506135000 81 156 0.0 2.0 0.00 0.00 0.00 83 1009.3
20260506134545 80 0 0.0 7.0 0.00 0.00 0.00 83 1009.6
20260506134501 81 191 0.0 3.0 0.00 0.00 0.00 84 1009.3
20260506134001 81 191 0.0 8.0 0.00 0.00 0.00 84 1009.2
20260506133501 81 228 0.0 8.0 0.00 0.00 0.00 84 1009.3
20260506133053 80 0 0.0 3.0 0.00 0.00 0.00 84 1009.6
20260506133001 80 172 0.0 2.0 0.00 0.00 0.00 85 1009.3
20260506132501 80 241 0.0 2.0 0.00 0.00 0.00 85 1009.3
20260506132000 80 44 0.0 2.0 0.00 0.00 0.00 86 1009.3
20260506131552 80 0 0.0 3.0 0.00 0.00 0.00 85 1009.7
20260506131503 80 44 0.0 2.0 0.00 0.00 0.00 86 1009.3
20260506130958 80 160 0.0 3.0 0.00 0.00 0.00 86 1009.4
20260506130457 80 256 0.0 3.0 0.00 0.00 0.00 86 1009.2
20260506130110 79 0 0.0 1.0 0.00 0.00 0.00 86 1009.4
20260506125957 80 354 0.0 1.0 0.00 0.00 0.00 86 1009.1
20260506125451 80 354 0.0 1.0 0.00 0.00 0.00 86 1009.0
20260506124949 80 294 0.0 1.0 0.00 0.00 0.00 86 1009.0
20260506124550 79 0 0.0 3.0 0.00 0.00 0.00 86 1009.1
20260506124442 80 235 0.0 4.0 0.00 0.00 0.00 86 1008.9
20260506123935 80 235 0.0 5.0 0.00 0.00 0.00 86 1008.9
20260506123435 80 190 0.0 6.0 0.00 0.00 0.00 86 1008.8
20260506123157 80 201 1.0 5.0 0.00 0.00 0.00 86 1008.7
20260506123052 79 0 1.0 6.0 0.00 0.00 0.00 85 1008.9
20260506122433 80 323 0.0 2.0 0.00 0.00 0.00 86 1008.6
20260506121929 80 248 0.0 5.0 0.00 0.00 0.00 86 1008.5
20260506121551 79 0 0.0 4.0 0.00 0.00 0.00 86 1008.6
20260506121430 80 309 0.0 5.0 0.00 0.00 0.00 86 1008.3
20260506121149 80 139 0.0 3.0 0.00 0.00 0.00 86 1008.1
20260506120429 80 283 0.0 2.0 0.00 0.00 0.00 86 1008.0
20260506120053 79 0 0.0 2.0 0.00 0.00 0.00 86 1008.2
20260506115928 80 283 0.0 2.0 0.00 0.00 0.00 86 1007.9
20260506115428 80 351 0.0 0.0 0.00 0.00 0.00 87 1007.8
20260506114928 80 351 0.0 0.0 0.00 0.00 0.00 87 1007.8
20260506114716 80 351 0.0 1.0 0.00 0.00 0.00 87 1007.9
20260506114553 79 0 0.0 2.0 0.00 0.00 0.00 86 1008.0
20260506113929 80 351 0.0 4.0 0.00 0.00 0.00 87 1007.6
20260506113428 80 139 0.0 4.0 0.00 0.00 0.00 87 1007.6
20260506113047 79 0 0.0 3.0 0.00 0.00 0.00 86 1007.8
20260506112929 80 316 0.0 2.0 0.00 0.00 0.00 87 1007.5
20260506112429 80 90 0.0 0.0 0.00 0.00 0.00 87 1007.5
20260506111929 80 90 0.0 0.0 0.00 0.00 0.00 87 1007.4
20260506111911 80 90 0.0 0.0 0.00 0.00 0.00 87 1007.4
20260506111550 79 0 0.0 0.0 0.00 0.00 0.00 86 1007.7
20260506110930 80 43 0.0 0.0 0.00 0.00 0.00 86 1007.4
20260506110430 80 43 0.0 1.0 0.00 0.00 0.00 86 1007.4
20260506110100 79 0 0.0 1.0 0.00 0.00 0.00 86 1007.6
20260506105931 80 43 0.0 1.0 0.00 0.00 0.00 86 1007.3
20260506105430 80 158 0.0 1.0 0.00 0.00 0.00 86 1007.2
20260506104928 80 237 0.0 4.0 0.00 0.00 0.00 86 1007.1
20260506104558 79 0 0.0 3.0 0.00 0.00 0.00 86 1007.4
20260506104430 80 281 0.0 4.0 0.00 0.00 0.00 86 1007.0
20260506103929 80 139 0.0 3.0 0.00 0.00 0.00 86 1007.0
20260506103429 80 195 0.0 0.0 0.00 0.00 0.00 86 1007.0
20260506103051 79 0 0.0 0.0 0.00 0.00 0.00 85 1007.2
20260506102928 80 195 0.0 0.0 0.00 0.00 0.00 86 1006.9
20260506102653 80 195 0.0 3.0 0.00 0.00 0.00 86 1006.8
20260506101929 80 195 0.0 3.0 0.00 0.00 0.00 86 1006.8
20260506101556 80 0 0.0 4.0 0.00 0.00 0.00 85 1006.9
20260506101430 80 146 0.0 0.0 0.00 0.00 0.00 86 1006.7
20260506100929 80 157 0.0 5.0 0.00 0.00 0.00 86 1006.7
20260506100523 80 27 0.0 6.0 0.00 0.00 0.00 85 1006.5
20260506100445 80 326 0.0 5.0 0.00 0.00 0.00 85 1006.5
20260506100050 80 0 0.0 5.0 0.00 0.00 0.00 85 1007.0
20260506095429 80 27 0.0 6.0 0.00 0.00 0.00 85 1006.6
20260506095154 80 84 0.0 6.0 0.00 0.00 0.00 85 1006.5
20260506094557 80 0 0.0 7.0 0.00 0.00 0.00 84 1006.8
20260506094431 80 146 0.0 6.0 0.00 0.00 0.00 85 1006.5
20260506093923 80 316 1.0 6.0 0.00 0.00 0.00 85 1006.6
20260506093423 80 4 1.0 7.0 0.00 0.00 0.00 85 1006.6
20260506093055 80 0 0.0 7.0 0.00 0.00 0.00 84 1006.8
20260506092921 80 297 0.0 7.0 0.00 0.00 0.00 85 1006.6
20260506092420 80 299 0.0 8.0 0.00 0.00 0.00 85 1006.6
20260506091920 80 46 1.0 8.0 0.00 0.00 0.00 85 1006.6
20260506091548 80 0 1.0 9.0 0.00 0.00 0.00 85 1006.8
20260506091418 80 8 1.0 6.0 0.00 0.00 0.00 85 1006.7
20260506090917 80 124 1.0 6.0 0.00 0.00 0.00 85 1006.6
20260506090412 80 138 0.0 9.0 0.00 0.00 0.00 85 1006.7
20260506090052 80 267 1.0 9.0 0.00 0.00 0.00 85 1007.0
20260506085912 80 313 2.0 9.0 0.00 0.00 0.00 85 1006.7
20260506085407 80 247 1.0 8.0 0.00 0.00 0.00 85 1006.7
20260506084906 80 221 1.0 8.0 0.00 0.00 0.00 85 1006.8
20260506084553 80 346 1.0 9.0 0.00 0.00 0.00 84 1007.1
20260506084403 80 39 0.0 7.0 0.00 0.00 0.00 85 1006.7
20260506083903 80 219 1.0 8.0 0.00 0.00 0.00 85 1006.7
20260506083403 80 231 1.0 9.0 0.00 0.00 0.00 85 1006.9
20260506083051 80 314 1.0 11.0 0.00 0.00 0.00 85 1007.1
20260506082902 80 323 2.0 11.0 0.00 0.00 0.00 85 1006.9
20260506082402 80 197 2.0 11.0 0.00 0.00 0.00 85 1007.0
20260506082124 80 272 1.0 11.0 0.00 0.00 0.00 85 1007.0
20260506081625 80 251 1.0 11.0 0.00 0.00 0.00 85 1007.1
20260506081549 80 39 0.0 11.0 0.00 0.00 0.00 85 1007.3
20260506080901 80 248 1.0 11.0 0.00 0.00 0.00 86 1007.1
20260506080402 80 214 0.0 11.0 0.00 0.00 0.00 86 1007.0
20260506073402 80 259 1.0 9.0 0.00 0.00 0.00 86 1007.3
20260506073050 79 331 1.0 8.0 0.00 0.00 0.00 86 1007.6
20260506072903 80 352 1.0 9.0 0.00 0.00 0.00 86 1007.3
20260506072626 80 265 0.0 6.0 0.00 0.00 0.00 86 1007.3
20260506071902 80 192 0.0 9.0 0.00 0.00 0.00 86 1007.4
20260506071613 80 45 0.0 12.0 0.00 0.00 0.00 86 1007.6
20260506071606 79 0 1.0 11.0 0.00 0.00 0.00 85 1007.7
20260506071559 80 310 2.0 11.0 0.00 0.00 0.00 86 1007.5
20260506070402 80 49 2.0 12.0 0.00 0.00 0.00 86 1007.6
20260506070132 80 231 0.0 10.0 0.00 0.00 0.00 86 1007.6
20260506062402 80 158 1.0 8.0 0.00 0.00 0.00 85 1008.0
20260506061902 80 76 0.0 7.0 0.00 0.00 0.00 85 1008.0
20260506061553 80 179 1.0 9.0 0.00 0.00 0.00 85 1008.2
20260506061401 80 331 1.0 8.0 0.00 0.00 0.00 85 1008.0
20260506060901 80 245 2.0 8.0 0.00 0.00 0.00 85 1008.2
20260506060402 80 141 1.0 9.0 0.00 0.00 0.00 85 1008.1
20260506051402 81 217 1.0 8.0 0.00 0.00 0.00 84 1008.4
20260506050903 81 304 0.0 8.0 0.00 0.00 0.00 84 1008.4
20260506050402 81 88 0.0 5.0 0.00 0.00 0.00 84 1008.5
20260506044902 81 217 1.0 9.0 0.00 0.00 0.00 83 1008.6
20260506044555 80 0 0.0 9.0 0.00 0.00 0.00 83 1008.9
20260506044401 81 81 1.0 10.0 0.00 0.00 0.00 83 1008.6
20260506043902 81 250 1.0 10.0 0.00 0.00 0.00 83 1008.6
20260506043401 81 290 1.0 6.0 0.00 0.00 0.00 83 1008.6
20260506043050 81 0 0.0 8.0 0.00 0.00 0.00 82 1008.9
20260506042901 81 205 0.0 8.0 0.00 0.00 0.00 83 1008.5
20260506042401 81 165 2.0 9.0 0.00 0.00 0.00 83 1008.7
20260506041901 81 63 1.0 9.0 0.00 0.00 0.00 83 1008.7
20260506041603 81 0 2.0 10.0 0.00 0.00 0.00 82 1008.9
20260506041400 81 69 2.0 7.0 0.00 0.00 0.00 83 1008.7
20260506040902 81 13 0.0 7.0 0.00 0.00 0.00 83 1008.6
20260506040403 81 354 0.0 9.0 0.00 0.00 0.00 82 1008.6
20260506040050 81 68 1.0 10.0 0.00 0.00 0.00 82 1008.9
20260506035903 81 326 1.0 9.0 0.00 0.00 0.00 82 1008.6
20260506035402 81 288 1.0 7.0 0.00 0.00 0.00 82 1008.4
20260506034901 81 118 1.0 8.0 0.00 0.00 0.00 82 1008.3
20260506034547 81 0 0.0 10.0 0.00 0.00 0.00 81 1008.6
20260506034400 81 160 2.0 8.0 0.00 0.00 0.00 82 1008.4
20260506033901 81 271 2.0 11.0 0.00 0.00 0.00 82 1008.3
20260506033401 81 72 0.0 11.0 0.00 0.00 0.00 82 1008.1
20260506033058 81 187 1.0 10.0 0.00 0.00 0.00 81 1008.3
20260506032901 81 234 2.0 9.0 0.00 0.00 0.00 82 1008.1
20260506032842 81 212 4.0 9.0 0.00 0.00 0.00 81 1008.0